Time,TemperatureF,DewpointF,PressureIn,WindDirection,WindDirectionDegrees,WindSpeedMPH,WindSpeedGustMPH,Humidity,HourlyPrecipIn,Conditions,Clouds,dailyrainin,SoftwareType,DateUTC
2013-03-17 00:03:00,38.0,-99.9,29.87,NNE,28,4.0,10.0,-999,-99.99,,,-99.99,,2013-03-17 04:03:00,
2013-03-17 00:13:00,38.0,-99.9,29.88,NNE,14,2.0,6.0,-999,-99.99,,,-99.99,,2013-03-17 04:13:00,
2013-03-17 00:23:00,38.0,-99.9,29.88,NNE,26,4.0,9.0,-999,-99.99,,,-99.99,,2013-03-17 04:23:00,
2013-03-17 00:33:00,38.0,-99.9,29.88,NNE,25,5.0,11.0,-999,-99.99,,,-99.99,,2013-03-17 04:33:00,
2013-03-17 00:43:00,37.0,-99.9,29.89,NNE,25,5.0,13.0,-999,-99.99,,,-99.99,,2013-03-17 04:43:00,
2013-03-17 00:53:00,37.0,-99.9,29.89,NNE,22,4.0,10.0,-999,-99.99,,,-99.99,,2013-03-17 04:53:00,
2013-03-17 01:03:00,37.0,-99.9,29.90,NNE,17,5.0,10.0,-999,-99.99,,,-99.99,,2013-03-17 05:03:00,
2013-03-17 01:12:00,37.0,-99.9,29.90,NNE,21,5.0,11.0,-999,-99.99,,,-99.99,,2013-03-17 05:12:00,
2013-03-17 01:22:00,37.0,-99.9,29.89,NNE,27,4.0,12.0,-999,-99.99,,,-99.99,,2013-03-17 05:22:00,
2013-03-17 01:32:00,37.0,-99.9,29.88,NE,41,7.0,12.0,-999,-99.99,,,-99.99,,2013-03-17 05:32:00,
2013-03-17 01:43:00,36.0,-99.9,29.88,NE,38,5.0,9.0,-999,-99.99,,,-99.99,,2013-03-17 05:43:00,
2013-03-17 01:52:00,37.0,-99.9,29.89,NE,47,4.0,7.0,-999,-99.99,,,-99.99,,2013-03-17 05:52:00,
2013-03-17 02:02:00,36.0,-99.9,29.89,NNE,32,4.0,7.0,-999,-99.99,,,-99.99,,2013-03-17 06:02:00,
2013-03-17 02:12:00,36.0,-99.9,29.91,North,10,3.0,5.0,-999,-99.99,,,-99.99,,2013-03-17 06:12:00,
2013-03-17 02:22:00,36.0,-99.9,29.91,NNE,20,3.0,4.0,-999,-99.99,,,-99.99,,2013-03-17 06:22:00,
2013-03-17 02:32:00,36.0,-99.9,29.91,NNE,23,4.0,9.0,-999,-99.99,,,-99.99,,2013-03-17 06:32:00,
2013-03-17 02:42:00,36.0,-99.9,29.92,NNE,25,3.0,8.0,-999,-99.99,,,-99.99,,2013-03-17 06:42:00,
2013-03-17 02:53:00,36.0,-99.9,29.92,NNE,32,4.0,6.0,-999,-99.99,,,-99.99,,2013-03-17 06:53:00,
2013-03-17 03:02:00,36.0,-99.9,29.92,NE,45,5.0,7.0,-999,-99.99,,,-99.99,,2013-03-17 07:02:00,
2013-03-17 03:12:00,36.0,-99.9,29.93,NE,42,6.0,9.0,-999,-99.99,,,-99.99,,2013-03-17 07:12:00,
2013-03-17 03:22:00,36.0,-99.9,29.93,North,10,2.0,5.0,-999,-99.99,,,-99.99,,2013-03-17 07:22:00,
2013-03-17 03:32:00,36.0,-99.9,29.93,NNE,21,3.0,5.0,-999,-99.99,,,-99.99,,2013-03-17 07:32:00,
2013-03-17 03:42:00,36.0,-99.9,29.93,NNE,22,4.0,10.0,-999,-99.99,,,-99.99,,2013-03-17 07:42:00,
2013-03-17 03:52:00,36.0,-99.9,29.94,NNE,17,4.0,8.0,-999,-99.99,,,-99.99,,2013-03-17 07:52:00,
2013-03-17 04:03:00,36.0,-99.9,29.94,NNE,25,2.0,4.0,-999,-99.99,,,-99.99,,2013-03-17 08:03:00,
2013-03-17 04:13:00,36.0,-99.9,29.94,NNE,24,4.0,8.0,-999,-99.99,,,-99.99,,2013-03-17 08:13:00,
2013-03-17 04:22:00,36.0,-99.9,29.94,NNE,24,5.0,9.0,-999,-99.99,,,-99.99,,2013-03-17 08:22:00,
2013-03-17 04:33:00,36.0,-99.9,29.95,NNE,26,3.0,6.0,-999,-99.99,,,-99.99,,2013-03-17 08:33:00,
2013-03-17 04:42:00,36.0,-99.9,29.95,NNE,20,5.0,12.0,-999,-99.99,,,-99.99,,2013-03-17 08:42:00,
2013-03-17 04:52:00,36.0,-99.9,29.94,NNE,17,4.0,8.0,-999,-99.99,,,-99.99,,2013-03-17 08:52:00,
2013-03-17 05:03:00,36.0,-99.9,29.95,NNE,26,6.0,12.0,-999,-99.99,,,-99.99,,2013-03-17 09:03:00,
2013-03-17 05:23:00,37.0,-99.9,29.96,NNE,22,4.0,8.0,-999,-99.99,,,-99.99,,2013-03-17 09:23:00,
2013-03-17 05:33:00,37.0,-99.9,29.96,NNE,13,4.0,9.0,-999,-99.99,,,-99.99,,2013-03-17 09:33:00,
2013-03-17 05:43:00,36.0,-99.9,29.96,NNE,23,5.0,10.0,-999,-99.99,,,-99.99,,2013-03-17 09:43:00,
2013-03-17 05:53:00,36.0,-99.9,29.97,NNE,22,4.0,6.0,-999,-99.99,,,-99.99,,2013-03-17 09:53:00,
2013-03-17 06:03:00,36.0,-99.9,29.98,NNE,21,5.0,9.0,-999,-99.99,,,-99.99,,2013-03-17 10:03:00,
2013-03-17 06:13:00,36.0,-99.9,29.98,North,9,6.0,10.0,-999,-99.99,,,-99.99,,2013-03-17 10:13:00,
2013-03-17 06:23:00,36.0,-99.9,29.99,North,7,3.0,12.0,-999,-99.99,,,-99.99,,2013-03-17 10:23:00,
2013-03-17 06:33:00,37.0,-99.9,30.00,NNW,344,1.0,4.0,-999,-99.99,,,-99.99,,2013-03-17 10:33:00,
2013-03-17 06:42:00,37.0,-99.9,30.01,NNW,348,2.0,9.0,-999,-99.99,,,-99.99,,2013-03-17 10:42:00,
2013-03-17 06:53:00,37.0,-99.9,30.01,North,-999,2.0,6.0,-999,-99.99,,,-99.99,,2013-03-17 10:53:00,
2013-03-17 07:03:00,37.0,-99.9,30.01,North,-999,1.0,4.0,-999,-99.99,,,-99.99,,2013-03-17 11:03:00,
2013-03-17 07:12:00,37.0,-99.9,30.02,NNE,14,5.0,10.0,-999,-99.99,,,-99.99,,2013-03-17 11:12:00,
2013-03-17 07:22:00,37.0,-99.9,30.02,North,1,4.0,12.0,-999,-99.99,,,-99.99,,2013-03-17 11:22:00,
2013-03-17 07:32:00,37.0,-99.9,30.02,North,2,2.0,8.0,-999,-99.99,,,-99.99,,2013-03-17 11:32:00,
2013-03-17 07:43:00,37.0,-99.9,30.03,North,355,2.0,8.0,-999,-99.99,,,-99.99,,2013-03-17 11:43:00,
2013-03-17 07:52:00,36.0,-99.9,30.04,North,10,5.0,11.0,-999,-99.99,,,-99.99,,2013-03-17 11:52:00,
2013-03-17 08:02:00,36.0,-99.9,30.05,NNW,345,3.0,15.0,-999,-99.99,,,-99.99,,2013-03-17 12:02:00,
2013-03-17 08:12:00,36.0,-99.9,30.05,NNE,16,6.0,13.0,-999,-99.99,,,-99.99,,2013-03-17 12:12:00,
2013-03-17 08:22:00,36.0,-99.9,30.05,NNE,19,6.0,15.0,-999,-99.99,,,-99.99,,2013-03-17 12:22:00,
2013-03-17 08:33:00,36.0,-99.9,30.05,NNE,27,7.0,14.0,-999,-99.99,,,-99.99,,2013-03-17 12:33:00,
2013-03-17 08:43:00,37.0,-99.9,30.06,NNE,20,4.0,9.0,-999,-99.99,,,-99.99,,2013-03-17 12:43:00,
2013-03-17 08:52:00,37.0,-99.9,30.08,NNE,12,4.0,12.0,-999,-99.99,,,-99.99,,2013-03-17 12:52:00,
2013-03-17 09:02:00,37.0,-99.9,30.08,NNE,21,5.0,11.0,-999,-99.99,,,-99.99,,2013-03-17 13:02:00,
2013-03-17 09:13:00,37.0,-99.9,30.08,NNE,26,6.0,14.0,-999,-99.99,,,-99.99,,2013-03-17 13:13:00,
2013-03-17 09:22:00,36.0,-99.9,30.09,NNE,31,5.0,12.0,-999,-99.99,,,-99.99,,2013-03-17 13:22:00,
2013-03-17 09:33:00,36.0,-99.9,30.09,NNE,21,6.0,13.0,-999,-99.99,,,-99.99,,2013-03-17 13:33:00,
2013-03-17 09:43:00,36.0,-99.9,30.10,NNE,23,6.0,14.0,-999,-99.99,,,-99.99,,2013-03-17 13:43:00,
2013-03-17 09:53:00,36.0,-99.9,30.10,NNE,28,4.0,11.0,-999,-99.99,,,-99.99,,2013-03-17 13:53:00,
2013-03-17 10:02:00,37.0,-99.9,30.11,North,7,8.0,14.0,-999,-99.99,,,-99.99,,2013-03-17 14:02:00,
2013-03-17 10:12:00,37.0,-99.9,30.11,North,356,8.0,14.0,-999,-99.99,,,-99.99,,2013-03-17 14:12:00,
2013-03-17 10:23:00,37.0,-99.9,30.12,North,10,6.0,12.0,-999,-99.99,,,-99.99,,2013-03-17 14:23:00,
2013-03-17 10:33:00,37.0,-99.9,30.11,NNE,14,7.0,12.0,-999,-99.99,,,-99.99,,2013-03-17 14:33:00,
2013-03-17 10:43:00,37.0,-99.9,30.11,North,9,9.0,15.0,-999,-99.99,,,-99.99,,2013-03-17 14:43:00,
2013-03-17 10:53:00,37.0,-99.9,30.10,North,11,7.0,11.0,-999,-99.99,,,-99.99,,2013-03-17 14:53:00,
2013-03-17 11:02:00,38.0,-99.9,30.11,North,360,6.0,12.0,-999,-99.99,,,-99.99,,2013-03-17 15:02:00,
2013-03-17 11:12:00,39.0,-99.9,30.11,North,8,6.0,11.0,-999,-99.99,,,-99.99,,2013-03-17 15:12:00,
2013-03-17 11:23:00,40.0,-99.9,30.11,North,357,6.0,13.0,-999,-99.99,,,-99.99,,2013-03-17 15:23:00,
2013-03-17 11:33:00,38.0,-99.9,30.12,North,359,11.0,15.0,-999,-99.99,,,-99.99,,2013-03-17 15:33:00,
2013-03-17 11:43:00,38.0,-99.9,30.12,North,358,11.0,16.0,-999,-99.99,,,-99.99,,2013-03-17 15:43:00,
2013-03-17 11:53:00,38.0,-99.9,30.14,NNW,330,8.0,13.0,-999,-99.99,,,-99.99,,2013-03-17 15:53:00,
2013-03-17 12:03:00,38.0,-99.9,30.14,NNW,348,9.0,12.0,-999,-99.99,,,-99.99,,2013-03-17 16:03:00,
2013-03-17 12:13:00,38.0,-99.9,30.14,North,355,10.0,14.0,-999,-99.99,,,-99.99,,2013-03-17 16:13:00,
2013-03-17 12:23:00,38.0,-99.9,30.14,North,352,11.0,15.0,-999,-99.99,,,-99.99,,2013-03-17 16:23:00,
2013-03-17 12:34:00,38.0,-99.9,30.14,North,349,9.0,13.0,-999,-99.99,,,-99.99,,2013-03-17 16:34:00,
2013-03-17 12:43:00,39.0,-99.9,30.14,North,354,10.0,14.0,-999,-99.99,,,-99.99,,2013-03-17 16:43:00,
2013-03-17 12:53:00,38.0,-99.9,30.14,NNW,348,10.0,17.0,-999,-99.99,,,-99.99,,2013-03-17 16:53:00,
2013-03-17 13:03:00,38.0,-99.9,30.14,North,355,11.0,15.0,-999,-99.99,,,-99.99,,2013-03-17 17:03:00,
2013-03-17 13:12:00,39.0,-99.9,30.13,NNE,23,4.0,7.0,-999,-99.99,,,-99.99,,2013-03-17 17:12:00,
2013-03-17 13:22:00,40.0,-99.9,30.13,North,353,2.0,7.0,-999,-99.99,,,-99.99,,2013-03-17 17:22:00,
2013-03-17 13:33:00,39.0,-99.9,30.14,North,357,9.0,13.0,-999,-99.99,,,-99.99,,2013-03-17 17:33:00,
2013-03-17 13:42:00,39.0,-99.9,30.16,North,360,9.0,13.0,-999,-99.99,,,-99.99,,2013-03-17 17:42:00,
2013-03-17 13:53:00,39.0,-99.9,30.16,North,359,8.0,12.0,-999,-99.99,,,-99.99,,2013-03-17 17:53:00,
2013-03-17 14:02:00,39.0,-99.9,30.16,North,1,8.0,13.0,-999,-99.99,,,-99.99,,2013-03-17 18:02:00,
2013-03-17 14:13:00,38.0,-99.9,30.16,North,357,11.0,15.0,-999,-99.99,,,-99.99,,2013-03-17 18:13:00,
2013-03-17 14:22:00,38.0,-99.9,30.14,North,359,10.0,14.0,-999,-99.99,,,-99.99,,2013-03-17 18:22:00,
2013-03-17 14:32:00,38.0,-99.9,30.14,North,1,8.0,13.0,-999,-99.99,,,-99.99,,2013-03-17 18:32:00,
2013-03-17 14:42:00,39.0,-99.9,30.13,North,349,4.0,10.0,-999,-99.99,,,-99.99,,2013-03-17 18:42:00,
2013-03-17 14:52:00,39.0,-99.9,30.13,North,351,4.0,10.0,-999,-99.99,,,-99.99,,2013-03-17 18:52:00,
2013-03-17 15:02:00,39.0,-99.9,30.13,North,352,7.0,10.0,-999,-99.99,,,-99.99,,2013-03-17 19:02:00,
2013-03-17 15:12:00,38.0,-99.9,30.13,North,360,8.0,11.0,-999,-99.99,,,-99.99,,2013-03-17 19:12:00,
2013-03-17 15:23:00,38.0,-99.9,30.13,North,351,8.0,11.0,-999,-99.99,,,-99.99,,2013-03-17 19:23:00,
2013-03-17 15:34:00,38.0,-99.9,30.13,North,3,6.0,10.0,-999,-99.99,,,-99.99,,2013-03-17 19:34:00,
2013-03-17 15:42:00,39.0,-99.9,30.13,NNW,334,9.0,12.0,-999,-99.99,,,-99.99,,2013-03-17 19:42:00,
2013-03-17 15:53:00,38.0,-99.9,30.13,NNW,345,8.0,11.0,-999,-99.99,,,-99.99,,2013-03-17 19:53:00,
2013-03-17 16:02:00,38.0,-99.9,30.14,NNW,348,8.0,13.0,-999,-99.99,,,-99.99,,2013-03-17 20:02:00,
2013-03-17 16:12:00,39.0,-99.9,30.14,NNW,339,6.0,10.0,-999,-99.99,,,-99.99,,2013-03-17 20:12:00,
2013-03-17 16:23:00,38.0,-99.9,30.14,North,349,6.0,8.0,-999,-99.99,,,-99.99,,2013-03-17 20:23:00,
2013-03-17 16:33:00,39.0,-99.9,30.15,North,349,8.0,12.0,-999,-99.99,,,-99.99,,2013-03-17 20:33:00,
2013-03-17 16:43:00,39.0,-99.9,30.15,NNW,338,6.0,9.0,-999,-99.99,,,-99.99,,2013-03-17 20:43:00,
2013-03-17 16:52:00,39.0,-99.9,30.15,NNW,345,5.0,9.0,-999,-99.99,,,-99.99,,2013-03-17 20:52:00,
2013-03-17 17:03:00,39.0,-99.9,30.15,NNW,329,8.0,10.0,-999,-99.99,,,-99.99,,2013-03-17 21:03:00,
2013-03-17 17:12:00,38.0,-99.9,30.16,NW,321,9.0,11.0,-999,-99.99,,,-99.99,,2013-03-17 21:12:00,
2013-03-17 17:23:00,39.0,-99.9,30.16,NW,326,9.0,12.0,-999,-99.99,,,-99.99,,2013-03-17 21:23:00,
2013-03-17 17:33:00,39.0,-99.9,30.16,NNW,329,10.0,15.0,-999,-99.99,,,-99.99,,2013-03-17 21:33:00,
2013-03-17 17:43:00,39.0,-99.9,30.16,NNW,329,13.0,15.0,-999,-99.99,,,-99.99,,2013-03-17 21:43:00,
2013-03-17 17:53:00,38.0,-99.9,30.16,NNW,328,12.0,16.0,-999,-99.99,,,-99.99,,2013-03-17 21:53:00,
2013-03-17 18:03:00,38.0,-99.9,30.16,NNW,333,13.0,16.0,-999,-99.99,,,-99.99,,2013-03-17 22:03:00,
2013-03-17 18:13:00,39.0,-99.9,30.16,NNW,333,9.0,15.0,-999,-99.99,,,-99.99,,2013-03-17 22:13:00,
2013-03-17 18:23:00,39.0,-99.9,30.17,NW,317,8.0,13.0,-999,-99.99,,,-99.99,,2013-03-17 22:23:00,
2013-03-17 18:33:00,39.0,-99.9,30.18,NNW,334,8.0,13.0,-999,-99.99,,,-99.99,,2013-03-17 22:33:00,
2013-03-17 18:42:00,38.0,-99.9,30.18,NNW,337,11.0,15.0,-999,-99.99,,,-99.99,,2013-03-17 22:42:00,
2013-03-17 18:53:00,38.0,-99.9,30.18,NNW,331,9.0,14.0,-999,-99.99,,,-99.99,,2013-03-17 22:53:00,
2013-03-17 19:03:00,38.0,-99.9,30.18,NNW,328,10.0,13.0,-999,-99.99,,,-99.99,,2013-03-17 23:03:00,
2013-03-17 19:13:00,38.0,-99.9,30.19,NNW,331,9.0,12.0,-999,-99.99,,,-99.99,,2013-03-17 23:13:00,
2013-03-17 19:23:00,38.0,-99.9,30.18,NNW,340,8.0,10.0,-999,-99.99,,,-99.99,,2013-03-17 23:23:00,
2013-03-17 19:33:00,38.0,-99.9,30.19,NNW,335,9.0,11.0,-999,-99.99,,,-99.99,,2013-03-17 23:33:00,
2013-03-17 19:43:00,38.0,-99.9,30.19,NNW,333,9.0,12.0,-999,-99.99,,,-99.99,,2013-03-17 23:43:00,
2013-03-17 19:53:00,39.0,-99.9,30.20,North,349,4.0,7.0,-999,-99.99,,,-99.99,,2013-03-17 23:53:00,
2013-03-17 20:03:00,39.0,-99.9,30.20,North,11,6.0,9.0,-999,-99.99,,,-99.99,,2013-03-18 00:03:00,
2013-03-17 20:13:00,39.0,-99.9,30.21,NNE,30,5.0,8.0,-999,-99.99,,,-99.99,,2013-03-18 00:13:00,
2013-03-17 20:22:00,39.0,-99.9,30.22,NE,48,4.0,7.0,-999,-99.99,,,-99.99,,2013-03-18 00:22:00,
2013-03-17 20:33:00,39.0,-99.9,30.22,NE,38,5.0,9.0,-999,-99.99,,,-99.99,,2013-03-18 00:33:00,
2013-03-17 20:42:00,39.0,-99.9,30.22,ENE,61,3.0,6.0,-999,-99.99,,,-99.99,,2013-03-18 00:42:00,
2013-03-17 20:53:00,39.0,-99.9,30.21,NE,56,3.0,5.0,-999,-99.99,,,-99.99,,2013-03-18 00:53:00,
2013-03-17 21:02:00,39.0,-99.9,30.22,NE,52,3.0,7.0,-999,-99.99,,,-99.99,,2013-03-18 01:02:00,
2013-03-17 21:12:00,39.0,-99.9,30.22,NE,50,3.0,5.0,-999,-99.99,,,-99.99,,2013-03-18 01:12:00,
2013-03-17 21:22:00,39.0,-99.9,30.23,ENE,67,1.0,3.0,-999,-99.99,,,-99.99,,2013-03-18 01:22:00,
2013-03-17 21:33:00,39.0,-99.9,30.24,NE,50,1.0,2.0,-999,-99.99,,,-99.99,,2013-03-18 01:33:00,
2013-03-17 21:42:00,39.0,-99.9,30.24,ENE,72,2.0,4.0,-999,-99.99,,,-99.99,,2013-03-18 01:42:00,
2013-03-17 21:52:00,39.0,-99.9,30.24,NE,53,2.0,6.0,-999,-99.99,,,-99.99,,2013-03-18 01:52:00,
2013-03-17 22:02:00,38.0,-99.9,30.25,ENE,57,2.0,3.0,-999,-99.99,,,-99.99,,2013-03-18 02:02:00,
2013-03-17 22:12:00,38.0,-99.9,30.25,ENE,59,3.0,5.0,-999,-99.99,,,-99.99,,2013-03-18 02:12:00,
2013-03-17 22:22:00,38.0,-99.9,30.25,NE,52,2.0,4.0,-999,-99.99,,,-99.99,,2013-03-18 02:22:00,
2013-03-17 22:32:00,38.0,-99.9,30.26,NE,47,4.0,6.0,-999,-99.99,,,-99.99,,2013-03-18 02:32:00,
2013-03-17 22:42:00,38.0,-99.9,30.26,NE,53,4.0,6.0,-999,-99.99,,,-99.99,,2013-03-18 02:42:00,
2013-03-17 22:52:00,38.0,-99.9,30.26,NE,50,5.0,9.0,-999,-99.99,,,-99.99,,2013-03-18 02:52:00,
2013-03-17 23:03:00,38.0,-99.9,30.26,NE,54,3.0,6.0,-999,-99.99,,,-99.99,,2013-03-18 03:03:00,
2013-03-17 23:12:00,37.0,-99.9,30.26,NE,54,4.0,7.0,-999,-99.99,,,-99.99,,2013-03-18 03:12:00,
2013-03-17 23:22:00,37.0,-99.9,30.26,NE,54,5.0,10.0,-999,-99.99,,,-99.99,,2013-03-18 03:22:00,
2013-03-17 23:33:00,37.0,-99.9,30.26,NE,52,4.0,6.0,-999,-99.99,,,-99.99,,2013-03-18 03:33:00,
2013-03-17 23:42:00,37.0,-99.9,30.26,ENE,58,3.0,6.0,-999,-99.99,,,-99.99,,2013-03-18 03:42:00,
2013-03-17 23:53:00,37.0,-99.9,30.26,ENE,63,3.0,6.0,-999,-99.99,,,-99.99,,2013-03-18 03:53:00,